Location: Gleizolles
(44.4833°N, 6.7667°E)
Time: 15:15:50
(UTC+00:00)

Vanguard 1 - Pass Details

Date: 29 June 2024
Orbit: 650 x 3826 km, 34.3° (Epoch: 22 July)

Event Time Altitude Azimuth Distance (km) Brightness Sun altitude
Rises 12:46:40 0° 265° (W) 4,776 13.8 64.3°
Reaches altitude 10° 12:50:53 10° 255° (WSW) 3,284 13.2 63.8°
Maximum altitude 12:57:02 28° 200° (SSW) 1,659 12.2 63.1°
Drops below altitude 10° 13:01:20 10° 141° (SE) 2,248 12.1 62.5°
Sets 13:03:40 0° 128° (SE) 3,035 12.6 62.2°
